Weather History for Newburgh, NY

Change the Weather History Date:

Tuesday, January 1, 2013

  Actual Average Record
Temperature  
Mean Temperature 28 °F -  
Max Temperature 35 °F 35 °F 53 °F (1993)
Min Temperature 21 °F 21 °F -7 °F (1988)
Degree Days  
Heating Degree Days 37    
Moisture  
Dew Point 20 °F    
Average Humidity 62    
Maximum Humidity 75    
Minimum Humidity 48    
Precipitation  
Precipitation 0.00 in - - ()
Sea Level Pressure  
Sea Level Pressure 29.89 in    
Wind  
Wind Speed 13 mph (WNW)    
Max Wind Speed 21 mph    
Max Gust Speed 30 mph    
Visibility 12 miles    
Events      
Averages and records for this station are not official NWS values.
T = Trace of Precipitation, MM = Missing Value Source: NWS Daily Summary

Daily Weather History Graph

Daily Weather History Graph

Search for Another Location

Airport:

Trip Planner

Search our weather history database for the weather conditions in past years. The results will help you decide how hot, cold, wet, or windy it might be!

Date:

Astronomy

Jan. 01, 2013 Rise Set
Actual Time 7:22 AM EST 4:37 PM EST
Civil Twilight 6:51 AM EST 5:08 PM EST
Nautical Twilight 6:16 AM EST 5:43 PM EST
Astronomical Twilight 5:43 AM EST 6:17 PM EST
Moon 9:09 PM EST (1/1) 9:30 AM EST (1/1)
Length of Visible Light 10h 17m
Length of Day
9h 14m
Waning Gibbous, 83% of the Moon is Illuminated
Jan 1
Waning Gibbous
Jan 4
Last Quarter
Jan 11
New
Jan 18
First Quarter
Jan 26
Full

Hourly Weather History & Observations

Time (EST) Temp. Windchill Dew Point Humidity Pressure Visibility Wind Dir Wind Speed Gust Speed Precip Events Conditions
12:45 AM 33.8 °F 26.4 °F 23.0 °F 65% 29.85 in 10.0 mi West 9.2 mph - N/A   Overcast
1:45 AM 35.6 °F 27.5 °F 23.0 °F 60% 29.85 in 10.0 mi West 11.5 mph - N/A   Overcast
3:45 AM 35.6 °F 27.5 °F 23.0 °F 60% 29.85 in 10.0 mi West 11.5 mph - N/A   Overcast
4:45 AM 35.6 °F 27.1 °F 26.6 °F 70% 29.84 in 10.0 mi West 12.7 mph 21.9 mph N/A   Overcast
5:45 AM 35.6 °F 27.5 °F 26.6 °F 70% 29.84 in 10.0 mi West 11.5 mph - N/A   Overcast
6:50 AM 35.6 °F 26.6 °F 28.4 °F 75% 29.87 in 10.0 mi WNW 13.8 mph - N/A   Overcast
7:50 AM 35.6 °F 26.6 °F 26.6 °F 70% 29.86 in 15.0 mi WNW 13.8 mph - N/A   Overcast
8:45 AM 35.6 °F 26.6 °F 24.8 °F 65% 29.87 in 10.0 mi WNW 13.8 mph - N/A   Overcast
9:50 AM 35.6 °F 26.6 °F 24.8 °F 65% 29.87 in 10.0 mi WNW 13.8 mph - N/A   Mostly Cloudy
10:45 AM 35.6 °F 26.6 °F 23.0 °F 60% 29.88 in 10.0 mi WNW 13.8 mph 26.5 mph N/A   Mostly Cloudy
11:45 AM 35.6 °F 26.6 °F 21.2 °F 56% 29.86 in 10.0 mi NW 13.8 mph 25.3 mph N/A   Mostly Cloudy
12:45 PM 35.6 °F 24.5 °F 19.4 °F 52% 29.85 in 20.0 mi WNW 20.7 mph 27.6 mph N/A   Mostly Cloudy
1:45 PM 33.8 °F 23.2 °F 17.6 °F 52% 29.84 in 20.0 mi WNW 17.3 mph 28.8 mph N/A   Mostly Cloudy
2:45 PM 33.8 °F 24.3 °F 15.8 °F 48% 29.86 in 20.0 mi WNW 13.8 mph 25.3 mph N/A   Mostly Cloudy
4:45 PM 30.2 °F 18.5 °F 15.8 °F 55% 29.90 in 10.0 mi WNW 17.3 mph 28.8 mph N/A   Overcast
5:45 PM 28.4 °F 18.5 °F 17.6 °F 64% 29.93 in 10.0 mi WNW 11.5 mph - N/A   Mostly Cloudy
6:45 PM 26.6 °F 13.1 °F 15.8 °F 64% 29.94 in 10.0 mi WNW 19.6 mph 29.9 mph N/A   Scattered Clouds
7:45 PM 26.6 °F 17.5 °F 14.0 °F 59% 29.96 in 10.0 mi WNW 9.2 mph 18.4 mph N/A   Partly Cloudy
8:45 PM 24.8 °F 11.1 °F 12.2 °F 59% 29.96 in 10.0 mi WNW 18.4 mph 24.2 mph N/A   Clear
9:45 PM 21.2 °F 9.5 °F 10.4 °F 63% 29.98 in 10.0 mi WNW 11.5 mph 17.3 mph N/A   Clear
10:45 PM 21.2 °F 9.5 °F 10.4 °F 63% 30.01 in 10.0 mi WNW 11.5 mph - N/A   Clear
11:50 PM 21.2 °F 9.5 °F 10.4 °F 63% 30.01 in 10.0 mi WNW 11.5 mph - N/A   Clear